This is the latest recevied weather packets stored in our database for station/object WI0K. If no packets are shown the sender has not sent any weather packets the latest 10 day(s).
| Time | Temp. | Humidity | Pressure | Rain* | Wind** | Luminosity | Snow |
|---|---|---|---|---|---|---|---|
| 1777592637 | 8.33° C | 57% | 1019.8 hPa | 0 mm | - | 165 W/m² | - |
| 1777592336 | 8.33° C | 57% | 1019.8 hPa | 0 mm | - | 165 W/m² | - |
| 1777592036 | 8.33° C | 56% | 1019.8 hPa | 0 mm | - | 181 W/m² | - |
| 1777591735 | 8.33° C | 57% | 1019.9 hPa | 0 mm | - | 171 W/m² | - |
| 1777591434 | 8.33° C | 56% | 1019.8 hPa | 0 mm | - | 185 W/m² | - |
| 1777591134 | 8.33° C | 56% | 1019.8 hPa | 0 mm | - | 204 W/m² | - |
| 1777590833 | 8.33° C | 55% | 1019.8 hPa | 0 mm | - | 414 W/m² | - |
| 1777590533 | 7.78° C | 56% | 1019.8 hPa | 0 mm | - | 387 W/m² | - |
| 1777590232 | 7.78° C | 56% | 1019.8 hPa | 0 mm | - | 239 W/m² | - |
| 1777589931 | 8.33° C | 54% | 832.6 hPa | 0 mm | - | 227 W/m² | - |
| 1777589630 | 7.78° C | 55% | 832.6 hPa | 0 mm | - | 201 W/m² | - |
| 1777589330 | 8.33° C | 53% | 832.7 hPa | 0 mm | - | 193 W/m² | - |
| 1777589029 | 8.33° C | 54% | 832.7 hPa | 0 mm | - | 184 W/m² | - |
| 1777588728 | 8.33° C | 54% | 832.7 hPa | 0 mm | - | 222 W/m² | - |
| 1777588428 | 8.33° C | 53% | 832.7 hPa | 0 mm | - | 281 W/m² | - |
| 1777588127 | 7.78° C | 54% | 1019.9 hPa | 0 mm | - | 313 W/m² | - |
| 1777587826 | 7.78° C | 53% | 1019.9 hPa | 0 mm | - | 289 W/m² | - |
| 1777587777 | 8.33° C | 54% | 1020.1 hPa | 0 mm | - | 251 W/m² | - |
| 1777587526 | 8.33° C | 54% | 1020.1 hPa | 0 mm | - | 251 W/m² | - |
| 1777587476 | 7.78° C | 52% | 832.8 hPa | 0 mm | - | 244 W/m² | - |
| 1777587225 | 7.78° C | 52% | 832.8 hPa | 0 mm | - | 244 W/m² | - |
| 1777587176 | 7.78° C | 53% | 832.8 hPa | 0 mm | - | 267 W/m² | - |
| 1777586924 | 7.78° C | 53% | 832.8 hPa | 0 mm | - | 267 W/m² | - |
| 1777586624 | 7.78° C | 54% | 1020.1 hPa | 0 mm | - | 346 W/m² | - |
| 1777586574 | 7.78° C | 55% | 832.8 hPa | 0 mm | - | 340 W/m² | - |
* Rain latest hour (hover to see other rain measurements)
** Current wind speed in m/s (hover to see current wind gust speed)